| time (UTC) | temp F | wind direction | speed MPH | gust MPH | rain 1hr in | rain 24hr in | rain mn in | humidity % | barometer mb |
| 20260504222034 | 64 | 213 | 4.0 | 6.0 | 0.00 | 0.01 | 0.01 | 47 | 1005.0 |
| 20260504221601 | 64 | 202 | 2.0 | 5.0 | 0.00 | 0.01 | 0.01 | 49 | 1005.1 |
| 20260504221034 | 64 | 0 | 2.0 | 9.0 | 0.00 | 0.01 | 0.01 | 48 | 1005.1 |
| 20260504220534 | 64 | 190 | 4.0 | 11.0 | 0.00 | 0.01 | 0.01 | 48 | 1005.0 |
| 20260504220055 | 64 | 248 | 3.0 | 11.0 | 0.00 | 0.01 | 0.01 | 48 | 1005.1 |
| 20260504215534 | 64 | 242 | 4.0 | 11.0 | 0.00 | 0.01 | 0.01 | 48 | 1005.1 |
| 20260504215034 | 64 | 236 | 4.0 | 11.0 | 0.00 | 0.01 | 0.01 | 48 | 1005.1 |
| 20260504214554 | 64 | 320 | 4.0 | 11.0 | 0.00 | 0.01 | 0.01 | 49 | 1005.2 |
| 20260504214035 | 64 | 232 | 3.0 | 16.0 | 0.00 | 0.01 | 0.01 | 48 | 1005.2 |
| 20260504213534 | 64 | 260 | 4.0 | 16.0 | 0.00 | 0.01 | 0.01 | 48 | 1005.2 |
| 20260504213100 | 64 | 267 | 7.0 | 16.0 | 0.00 | 0.01 | 0.01 | 48 | 1005.3 |
| 20260504212531 | 64 | 233 | 7.0 | 14.0 | 0.00 | 0.01 | 0.01 | 48 | 1005.2 |
| 20260504212033 | 64 | 253 | 5.0 | 21.0 | 0.00 | 0.01 | 0.01 | 48 | 1005.1 |
| 20260504211548 | 64 | 289 | 6.0 | 21.0 | 0.00 | 0.01 | 0.01 | 47 | 1005.1 |
| 20260504211033 | 64 | 245 | 12.0 | 19.0 | 0.00 | 0.01 | 0.01 | 46 | 1005.2 |
| 20260504210537 | 65 | 279 | 7.0 | 18.0 | 0.00 | 0.01 | 0.01 | 46 | 1005.0 |
| 20260504210047 | 65 | 290 | 8.0 | 18.0 | 0.00 | 0.01 | 0.01 | 46 | 1005.0 |
| 20260504205535 | 64 | 288 | 10.0 | 15.0 | 0.00 | 0.01 | 0.01 | 46 | 1004.9 |
| 20260504205035 | 64 | 303 | 7.0 | 12.0 | 0.00 | 0.01 | 0.01 | 48 | 1005.0 |
| 20260504204550 | 64 | 258 | 5.0 | 17.0 | 0.00 | 0.01 | 0.01 | 49 | 1005.0 |
| 20260504204034 | 64 | 286 | 9.0 | 21.0 | 0.00 | 0.01 | 0.01 | 48 | 1005.1 |
| 20260504203534 | 64 | 229 | 11.0 | 21.0 | 0.00 | 0.01 | 0.01 | 48 | 1005.0 |
| 20260504203048 | 64 | 270 | 8.0 | 19.0 | 0.00 | 0.01 | 0.01 | 49 | 1005.0 |
| 20260504202534 | 64 | 221 | 10.0 | 19.0 | 0.00 | 0.01 | 0.01 | 48 | 1005.1 |
| 20260504202034 | 64 | 257 | 9.0 | 18.0 | 0.00 | 0.01 | 0.01 | 48 | 1005.1 |
| 20260504201544 | 63 | 332 | 8.0 | 18.0 | 0.00 | 0.01 | 0.01 | 49 | 1005.2 |
| 20260504201032 | 63 | 265 | 10.0 | 21.0 | 0.00 | 0.01 | 0.01 | 49 | 1005.1 |
| 20260504200534 | 63 | 255 | 8.0 | 21.0 | 0.00 | 0.01 | 0.01 | 50 | 1005.1 |
| 20260504200044 | 64 | 219 | 12.0 | 21.0 | 0.00 | 0.01 | 0.01 | 49 | 1005.0 |
| 20260504195530 | 63 | 247 | 10.0 | 22.0 | 0.00 | 0.01 | 0.01 | 51 | 1005.1 |
| 20260504195032 | 63 | 266 | 11.0 | 22.0 | 0.00 | 0.01 | 0.01 | 51 | 1005.1 |
| 20260504194546 | 63 | 267 | 11.0 | 21.0 | 0.00 | 0.01 | 0.01 | 54 | 1005.1 |
| 20260504194032 | 63 | 211 | 12.0 | 21.0 | 0.00 | 0.01 | 0.01 | 51 | 1005.2 |
| 20260504193538 | 63 | 175 | 8.0 | 18.0 | 0.00 | 0.01 | 0.01 | 54 | 1005.1 |
| 20260504193043 | 62 | 208 | 6.0 | 18.0 | 0.00 | 0.01 | 0.01 | 56 | 1005.2 |
| 20260504192532 | 61 | 181 | 6.0 | 12.0 | 0.00 | 0.01 | 0.01 | 60 | 1005.3 |
| 20260504192037 | 61 | 188 | 3.0 | 11.0 | 0.00 | 0.01 | 0.01 | 60 | 1005.3 |
| 20260504191542 | 61 | 226 | 5.0 | 11.0 | 0.00 | 0.01 | 0.01 | 61 | 1005.2 |
| 20260504191034 | 61 | 217 | 4.0 | 11.0 | 0.00 | 0.01 | 0.01 | 61 | 1005.3 |
| 20260504190532 | 60 | 236 | 6.0 | 11.0 | 0.00 | 0.01 | 0.01 | 63 | 1005.4 |
| 20260504190048 | 59 | 297 | 5.0 | 11.0 | 0.00 | 0.01 | 0.01 | 65 | 1005.5 |
| 20260504185531 | 58 | 262 | 4.0 | 15.0 | 0.00 | 0.01 | 0.01 | 67 | 1005.6 |
| 20260504185035 | 58 | 210 | 4.0 | 15.0 | 0.00 | 0.01 | 0.01 | 67 | 1005.6 |
| 20260504184544 | 57 | 308 | 6.0 | 13.0 | 0.00 | 0.01 | 0.01 | 67 | 1005.7 |
| 20260504184035 | 57 | 246 | 7.0 | 13.0 | 0.00 | 0.01 | 0.01 | 69 | 1005.8 |
| 20260504183535 | 57 | 234 | 7.0 | 12.0 | 0.00 | 0.01 | 0.01 | 71 | 1005.7 |
| 20260504183044 | 57 | 219 | 5.0 | 11.0 | 0.00 | 0.01 | 0.01 | 74 | 1005.8 |
| 20260504182534 | 56 | 274 | 5.0 | 10.0 | 0.00 | 0.01 | 0.01 | 73 | 1005.8 |
| 20260504182036 | 56 | 209 | 3.0 | 10.0 | 0.00 | 0.01 | 0.01 | 74 | 1005.9 |
| 20260504181556 | 55 | 247 | 4.0 | 10.0 | 0.01 | 0.01 | 0.01 | 75 | 1005.8 |
| 20260504181037 | 55 | 201 | 6.0 | 10.0 | 0.01 | 0.01 | 0.01 | 75 | 1005.8 |
| 20260504180536 | 55 | 201 | 4.0 | 8.0 | 0.01 | 0.01 | 0.01 | 78 | 1005.8 |
| 20260504180053 | 54 | 241 | 2.0 | 9.0 | 0.01 | 0.01 | 0.01 | 77 | 1005.8 |
| 20260504175536 | 54 | 256 | 4.0 | 9.0 | 0.01 | 0.01 | 0.01 | 78 | 1005.8 |
| 20260504175040 | 54 | 228 | 3.0 | 9.0 | 0.01 | 0.01 | 0.01 | 80 | 1005.8 |
| 20260504174547 | 53 | 254 | 4.0 | 9.0 | 0.01 | 0.01 | 0.01 | 81 | 1005.9 |
| 20260504174036 | 53 | 204 | 3.0 | 7.0 | 0.01 | 0.01 | 0.01 | 80 | 1006.0 |
| 20260504173536 | 53 | 276 | 2.0 | 7.0 | 0.01 | 0.01 | 0.01 | 78 | 1006.2 |
| 20260504173050 | 53 | 334 | 1.0 | 7.0 | 0.01 | 0.01 | 0.01 | 78 | 1006.3 |
| 20260504172535 | 54 | 295 | 2.0 | 10.0 | 0.01 | 0.01 | 0.01 | 77 | 1006.4 |
| 20260504172036 | 54 | 286 | 4.0 | 10.0 | 0.01 | 0.01 | 0.01 | 75 | 1006.4 |
| 20260504171559 | 54 | 294 | 5.0 | 10.0 | 0.00 | 0.00 | 0.00 | 74 | 1006.1 |
| 20260504171037 | 55 | 296 | 5.0 | 11.0 | 0.00 | 0.00 | 0.00 | 72 | 1006.0 |
| 20260504170540 | 56 | 355 | 5.0 | 11.0 | 0.00 | 0.00 | 0.00 | 69 | 1005.9 |
| 20260504151036 | 55 | 206 | 7.0 | 16.0 | 0.00 | 0.07 | 0.00 | 60 | 1005.8 |
| 20260504150536 | 55 | 221 | 7.0 | 16.0 | 0.00 | 0.07 | 0.00 | 61 | 1005.9 |
| 20260504141036 | 51 | 196 | 6.0 | 11.0 | 0.00 | 0.12 | 0.00 | 62 | 1006.6 |
| 20260504140536 | 51 | 232 | 5.0 | 12.0 | 0.00 | 0.12 | 0.00 | 62 | 1006.6 |
| 20260504130537 | 48 | 192 | 5.0 | 8.0 | 0.00 | 0.17 | 0.00 | 62 | 1007.5 |
| 20260504110534 | 34 | 0 | 0.0 | 0.0 | 0.00 | 0.21 | 0.00 | 95 | 1007.7 |
| 20260504100534 | 30 | 267 | 0.0 | 1.0 | 0.00 | 0.22 | 0.00 | 94 | 1007.7 |
| 20260504081551 | 30 | 0 | 0.0 | 2.0 | 0.00 | 0.25 | 0.00 | 92 | 1007.5 |
| 20260504081036 | 30 | 268 | 0.0 | 2.0 | 0.00 | 0.25 | 0.00 | 92 | 1007.5 |
| 20260504080535 | 30 | 268 | 0.0 | 3.0 | 0.00 | 0.25 | 0.00 | 92 | 1007.6 |
| 20260504080104 | 30 | 0 | 0.0 | 3.0 | 0.00 | 0.25 | 0.00 | 92 | 1007.4 |
| 20260504050536 | 33 | 0 | 0.0 | 2.0 | 0.00 | 0.25 | 0.00 | 88 | 1007.2 |
| 20260504045536 | 33 | 268 | 1.0 | 2.0 | 0.00 | 0.25 | 0.00 | 88 | 1007.1 |
| 20260504045035 | 33 | 0 | 0.0 | 0.0 | 0.00 | 0.25 | 0.00 | 88 | 1007.0 |
| 20260504044544 | 33 | 0 | 0.0 | 0.0 | 0.00 | 0.25 | 0.00 | 88 | 1007.1 |
| 20260504044034 | 33 | 0 | 0.0 | 2.0 | 0.00 | 0.25 | 0.00 | 88 | 1007.1 |
| 20260504043536 | 33 | 0 | 0.0 | 2.0 | 0.00 | 0.25 | 0.00 | 87 | 1007.1 |
| 20260504043054 | 33 | 268 | 1.0 | 2.0 | 0.00 | 0.25 | 0.00 | 86 | 1007.1 |
| 20260504042537 | 34 | 0 | 0.0 | 2.0 | 0.00 | 0.25 | 0.00 | 86 | 1007.2 |
| 20260504042036 | 34 | 268 | 0.0 | 2.0 | 0.00 | 0.25 | 0.00 | 86 | 1007.1 |
| 20260504041545 | 34 | 0 | 0.0 | 1.0 | 0.00 | 0.25 | 0.00 | 86 | 1007.1 |
| 20260504041036 | 34 | 0 | 0.0 | 2.0 | 0.00 | 0.25 | 0.00 | 86 | 1007.1 |
| 20260504040539 | 34 | 268 | 0.0 | 3.0 | 0.00 | 0.25 | 0.00 | 85 | 1007.1 |
| 20260504040104 | 34 | 268 | 1.0 | 3.0 | 0.00 | 0.25 | 0.00 | 85 | 1007.0 |
| 20260504035533 | 35 | 268 | 1.0 | 3.0 | 0.00 | 0.25 | 0.25 | 84 | 1007.0 |
| 20260504035037 | 35 | 268 | 0.0 | 0.0 | 0.00 | 0.25 | 0.25 | 84 | 1007.0 |
| 20260504034546 | 35 | 0 | 0.0 | 0.0 | 0.00 | 0.25 | 0.25 | 84 | 1006.9 |
| 20260504034037 | 35 | 0 | 0.0 | 0.0 | 0.00 | 0.25 | 0.25 | 83 | 1006.9 |
| 20260504033536 | 36 | 0 | 0.0 | 0.0 | 0.00 | 0.25 | 0.25 | 83 | 1006.9 |
| 20260504033045 | 36 | 0 | 0.0 | 0.0 | 0.00 | 0.25 | 0.25 | 80 | 1006.9 |
| 20260504032535 | 36 | 0 | 0.0 | 0.0 | 0.00 | 0.25 | 0.25 | 80 | 1006.9 |
| 20260504032036 | 36 | 0 | 0.0 | 0.0 | 0.00 | 0.25 | 0.25 | 80 | 1006.8 |
| 20260504031543 | 36 | 0 | 0.0 | 1.0 | 0.00 | 0.25 | 0.25 | 79 | 1006.7 |
| 20260504031037 | 37 | 0 | 0.0 | 2.0 | 0.00 | 0.25 | 0.25 | 77 | 1006.7 |
| 20260504030534 | 37 | 0 | 0.0 | 2.0 | 0.00 | 0.25 | 0.25 | 77 | 1006.6 |
| 20260504030050 | 38 | 268 | 0.0 | 2.0 | 0.00 | 0.25 | 0.25 | 76 | 1006.4 |
| 20260504025534 | 38 | 0 | 0.0 | 1.0 | 0.00 | 0.29 | 0.25 | 76 | 1006.4 |
| 20260504025038 | 39 | 0 | 0.0 | 1.0 | 0.00 | 0.29 | 0.25 | 75 | 1006.4 |
| 20260504024549 | 39 | 0 | 0.0 | 2.0 | 0.00 | 0.29 | 0.25 | 74 | 1006.4 |
| 20260504024036 | 39 | 0 | 0.0 | 2.0 | 0.00 | 0.29 | 0.25 | 71 | 1006.4 |
| 20260504023536 | 40 | 268 | 0.0 | 3.0 | 0.00 | 0.29 | 0.25 | 69 | 1006.3 |
| 20260504023057 | 40 | 268 | 0.0 | 3.0 | 0.00 | 0.29 | 0.25 | 68 | 1006.2 |
| 20260504022539 | 41 | 268 | 1.0 | 3.0 | 0.00 | 0.29 | 0.25 | 66 | 1006.3 |
| 20260504022035 | 41 | 268 | 1.0 | 3.0 | 0.00 | 0.29 | 0.25 | 65 | 1006.3 |
| 20260504021552 | 42 | 268 | 1.0 | 3.0 | 0.00 | 0.29 | 0.25 | 63 | 1006.4 |
| 20260504021033 | 42 | 268 | 1.0 | 6.0 | 0.00 | 0.29 | 0.25 | 60 | 1006.4 |
| 20260504020536 | 43 | 268 | 1.0 | 9.0 | 0.00 | 0.29 | 0.25 | 60 | 1006.3 |
| 20260504020050 | 43 | 275 | 2.0 | 9.0 | 0.00 | 0.29 | 0.25 | 59 | 1006.3 |
| 20260504015536 | 43 | 279 | 1.0 | 6.0 | 0.00 | 0.31 | 0.25 | 58 | 1006.3 |
| 20260504015037 | 44 | 274 | 2.0 | 6.0 | 0.00 | 0.31 | 0.25 | 57 | 1006.3 |
| 20260504014558 | 44 | 284 | 1.0 | 5.0 | 0.00 | 0.31 | 0.25 | 57 | 1006.3 |
| 20260504014037 | 44 | 282 | 0.0 | 5.0 | 0.00 | 0.31 | 0.25 | 56 | 1006.2 |
| 20260504013537 | 44 | 290 | 1.0 | 4.0 | 0.00 | 0.31 | 0.25 | 57 | 1006.2 |
| 20260504013048 | 44 | 302 | 1.0 | 8.0 | 0.00 | 0.31 | 0.25 | 56 | 1006.2 |
| 20260504012539 | 45 | 304 | 4.0 | 9.0 | 0.00 | 0.31 | 0.25 | 56 | 1006.2 |
| 20260504012036 | 45 | 285 | 4.0 | 11.0 | 0.00 | 0.31 | 0.25 | 56 | 1006.1 |
| 20260504011546 | 45 | 265 | 3.0 | 11.0 | 0.00 | 0.31 | 0.25 | 54 | 1006.1 |
| 20260504011034 | 44 | 321 | 3.0 | 10.0 | 0.00 | 0.31 | 0.25 | 55 | 1006.0 |
| 20260504010536 | 44 | 273 | 4.0 | 10.0 | 0.00 | 0.31 | 0.25 | 55 | 1005.9 |
| 20260504010051 | 45 | 289 | 1.0 | 5.0 | 0.00 | 0.31 | 0.25 | 56 | 1005.8 |
| 20260504005539 | 45 | 300 | 2.0 | 11.0 | 0.00 | 0.34 | 0.25 | 53 | 1005.7 |
| 20260504005036 | 46 | 310 | 3.0 | 11.0 | 0.00 | 0.34 | 0.25 | 52 | 1005.7 |
| 20260504004550 | 46 | 298 | 6.0 | 11.0 | 0.00 | 0.34 | 0.25 | 52 | 1005.6 |
| 20260504004036 | 46 | 310 | 5.0 | 12.0 | 0.00 | 0.34 | 0.25 | 51 | 1005.5 |
| 20260504003536 | 46 | 300 | 4.0 | 12.0 | 0.00 | 0.34 | 0.25 | 51 | 1005.5 |
| 20260504003052 | 46 | 323 | 5.0 | 12.0 | 0.00 | 0.34 | 0.25 | 50 | 1005.3 |
| 20260504002536 | 46 | 309 | 4.0 | 9.0 | 0.00 | 0.34 | 0.25 | 50 | 1005.2 |
| 20260504002036 | 46 | 0 | 3.0 | 9.0 | 0.00 | 0.34 | 0.25 | 50 | 1005.2 |
| 20260504001603 | 47 | 311 | 4.0 | 12.0 | 0.00 | 0.34 | 0.25 | 50 | 1005.1 |
| 20260504001037 | 47 | 309 | 5.0 | 12.0 | 0.00 | 0.34 | 0.25 | 49 | 1005.1 |
| 20260504000536 | 47 | 294 | 6.0 | 14.0 | 0.00 | 0.34 | 0.25 | 49 | 1005.0 |
| 20260504000115 | 47 | 316 | 6.0 | 14.0 | 0.00 | 0.34 | 0.25 | 49 | 1005.0 |
| 20260503235538 | 47 | 327 | 3.0 | 10.0 | 0.00 | 0.42 | 0.25 | 48 | 1004.9 |
| 20260503235038 | 47 | 325 | 5.0 | 10.0 | 0.00 | 0.42 | 0.25 | 48 | 1004.8 |
| 20260503234544 | 47 | 292 | 4.0 | 10.0 | 0.00 | 0.42 | 0.25 | 48 | 1004.8 |
| 20260503234034 | 47 | 321 | 5.0 | 9.0 | 0.00 | 0.42 | 0.25 | 47 | 1004.7 |
| 20260503233537 | 48 | 288 | 4.0 | 18.0 | 0.00 | 0.42 | 0.25 | 47 | 1004.5 |
| 20260503233045 | 48 | 317 | 8.0 | 18.0 | 0.00 | 0.42 | 0.25 | 46 | 1004.6 |
| 20260503232533 | 48 | 325 | 9.0 | 19.0 | 0.00 | 0.42 | 0.25 | 45 | 1004.5 |
| 20260503232037 | 48 | 290 | 7.0 | 19.0 | 0.00 | 0.42 | 0.25 | 45 | 1004.4 |
| 20260503231548 | 49 | 289 | 8.0 | 28.0 | 0.00 | 0.42 | 0.25 | 44 | 1004.3 |
| 20260503231037 | 49 | 331 | 11.0 | 28.0 | 0.00 | 0.42 | 0.25 | 43 | 1004.3 |
| 20260503230537 | 49 | 315 | 9.0 | 20.0 | 0.00 | 0.42 | 0.25 | 44 | 1004.1 |
| 20260503230043 | 50 | 309 | 9.0 | 20.0 | 0.00 | 0.42 | 0.25 | 43 | 1004.0 |
| 20260503225538 | 50 | 346 | 8.0 | 16.0 | 0.00 | 0.50 | 0.25 | 44 | 1003.9 |
| 20260503225036 | 50 | 298 | 5.0 | 21.0 | 0.00 | 0.50 | 0.25 | 45 | 1003.9 |
| 20260503224547 | 50 | 261 | 10.0 | 21.0 | 0.00 | 0.50 | 0.25 | 44 | 1003.8 |
| 20260503224036 | 50 | 288 | 8.0 | 16.0 | 0.00 | 0.50 | 0.25 | 45 | 1003.8 |
| 20260503223536 | 50 | 295 | 8.0 | 17.0 | 0.00 | 0.50 | 0.25 | 45 | 1003.7 |
| 20260503223048 | 50 | 311 | 9.0 | 17.0 | 0.00 | 0.50 | 0.25 | 45 | 1003.6 |
| 20260503222536 | 50 | 295 | 6.0 | 17.0 | 0.00 | 0.50 | 0.25 | 46 | 1003.4 |